Showing default

METEOR 2-17, 18820

Orbit data source: Space-Track

METEOR 2-17, 18820 is a Commonwealth of Independent States-origin payload satellite in LEO that was launched on Sat, 30 Jan 1988 UTC via a TSIKLON-3 launch vehicle from the Plesetsk Missile And Space Complex (PKMTR). Payload-class satellites include a variety of spacecraft equipped with specific instruments for various scientific and technological missions. These include communications satellites like Starlink; space stations such as the ISS; scientific satellites like the Hubble; Earth observation satellites from companies like Planet Labs, Umbra, and HawkEye 360; GPS; miniature CubeSats for education and research; and military/defense satellites.

Loading next visibility...
Identifier
18820, 1988-005A
Orbit
LEO
Country
Flag of CISCIS
Related business
Manufacturer
VNIIEM
Mission
Civil Weather
Bus & Motor
METEOR-2, Unknown motor
Mass
~1,500 kg wet, ~1,500 kg dry
Launch date (UTC)
1988-01-30 (38 years ago)
Launch vehicle
TSIKLON-3
Launch site
Plesetsk Missile And Space Complex (PKMTR)
Object type
Payload
Rocket body
Debris
Shape & HBR
Cyl + 2 Pan, 2.3 m
Radar Cross Section
5.718 m², Large (>1 m²)

Expand to show TLE details & history
Last TLE update: 1 day ago

TLE from 1 day ago
0 METEOR 2-17
1 18820U 88005A   25260.88105745  .00000088  00000-0  64146-4 0  9994
2 18820  82.5461 180.6299 0017434 122.7822 302.7497 13.85631040902470
Epoch: 2025-09-17T21:08Z
TLE epoch observation values (Epoch: 2025-09-17T21:08:43.363Z)
Latitude
64.41565°
Longitude
-117.82778°
Altitude
948.189 km
Speed
7.387 km/s
True Right ascension
13h 05m 36s
True Declination
64° 17' 06"
Sunlit
Object was in daylight at epoch
Visualization orbit readout
Latitude
Unknown
Longitude
Unknown
Altitude
Unknown
Speed
Unknown
Apparent Right ascension
Unknown
Apparent Declination
Unknown
Sunlit
N/A
Visualization observer readout
Local Sidereal Time
14:43:22
Azimuth
Unknown
Elevation
Unknown
Doppler factor
Unknown
Orbital elements
Apogee altitude
953.892 km
Perigee altitude
928.371 km
Semi-major axis
7,319.269 km
Eccentricity
0.00174
Inclination
82.5461°
RAAN
180.6299°
Arg. of periapsis
122.7822°
True anomaly
302.58148°
Mean anomaly
302.7497°
Eccentric anomaly
302.66561°
Mean motion
3.4661 °/min
Orbital period
103.86 mins
BSTAR
0.000064146
Loading maneuver chart data...
Computing Atmospheric mass density...
Loading historical data...
Loading historical data...
Loading historical data...
Loading historical data...
Loading historical data...
Loading historical data...
Loading historical data...

Documentation

Showing up to 5 results
|